Regional Weather Roundup
Issued by NWS Charleston, SC

Current Version | Previous Version | Graphics & Text | Print | Product List | Glossary On
Versions: 1 2 3 4 5 6 7 8 9 10 11 12 13 14 15 16 17 18 19 20 21 22 23 24 25 26 27 28 29 30 31 32 33 34 35 36 37 38 39 40 41 42 43 44 45 46 47 48 49 50
000 ASUS42 KCHS 301927 RWRCHS REGIONAL WEATHER ROUNDUP NATIONAL WEATHER SERVICE CHARLESTON SC 300 PM EDT SUN AUG 30 2015 NOTE: "FAIR" INDICATES FEW OR NO CLOUDS BELOW 12,000 FEET WITH NO SIGNIFICANT WEATHER AND/OR OBSTRUCTIONS TO VISIBILITY. NOT ALL STATIONS ARE QUALITY CONTROLLED BY THE NATIONAL WEATHER SERVICE. USE DATA WITH CAUTION...ESPECIALLY DEWPOINT OBSERVATIONS. SCZ027-030-031-034>040-042>050-302000- ...SOUTHEAST SOUTH CAROLINA... CITY SKY/WX TMP DP RH WIND PRES REMARKS N CHARLESTON RAIN 74 71 91 SE10 30.13F WATERFRONT PRK N/A 75 74 97 E9 30.12R MOUNT PLEASANT RAIN 73 73 100 CALM 30.14F JOHNS ISLAND HVY RAIN 73 73 100 NE5 30.14S VSB 1/2 PINOPOLIS N/A -18 -18 100 MISG N/A MONCKS CORNER LGT RAIN 77 73 88 SE5 30.12F SUMMERVILLE RAIN 75 75 100 SE3 30.13F BEAUFORT MCAS RAIN 74 73 97 E6 30.12F BEAUFORT ARPT RAIN 73 73 100 E7 30.11F HILTON HEAD IS RAIN 75 73 94 NE6 30.14R WALTERBORO LGT RAIN 77 73 88 SE8 30.13F ALLENDALE CLOUDY 81 75 83 SE7 30.08F ...SOUTHERN MIDLANDS AND PEE DEE... CITY SKY/WX TMP DP RH WIND PRES REMARKS GEORGETOWN NOT AVBL KINGSTREE NOT AVBL ORANGEBURG LGT RAIN 76 71 85 NE5 30.10F BARNWELL FAIR 82 73 74 E10 30.10F AIKEN MOCLDY 77 68 73 NE14 30.14F MANNING FAIR 73 73 100 SE3 30.12F COLUMBIA RAIN 74 69 85 N7 30.12F SUMTER CLOUDY 80 70 70 NE9 30.10F FLORENCE LGT RAIN 77 73 87 E7 30.14F MYRTLE BEACH PTSUNNY 79 72 78 SE12 30.15F FOG N MYRTLE BEACH CLOUDY 80 72 76 SE9 30.13F $$ GAZ063-065-086>088-099>101-113>116-118-119-134>141-150-302000- ...SOUTHEAST GEORGIA... CITY SKY/WX TMP DP RH WIND PRES REMARKS SAVANNAH ARPT HVY RAIN 74 72 93 E13 30.09F FOG HUNTER AAF LGT RAIN 75 75 100 E8 30.06F FOG FORT STEWART CLOUDY 77 73 88 E12G20 30.05F STATESBORO CLOUDY 81 81 100 E8 30.07F HX 91 SYLVANIA CLOUDY 81 77 89 E10 30.09F CLAXTON NOT AVBL ...CSRA...CENTRAL AND FAR SOUTHEAST GEORGIA... CITY SKY/WX TMP DP RH WIND PRES REMARKS THOMSON CLOUDY 77 76 96 N8 30.13F VSB 3/4 AUGUSTA-BUSH PTSUNNY 82 72 71 E9 30.08F AUGUSTA-DANIEL PTSUNNY 96 72 45 E10 30.10F HX 104 SWAINSBORO TSTM 81 77 89 W3 30.07R VIDALIA TSTM 77 72 83 N10G26 30.05R VSB 3/4 EASTMAN MOCLDY 83 72 71 NW10G21 30.08R HAZLEHURST CLOUDY 87 74 63 CALM 30.03S HX 95 ALMA PTSUNNY 81 73 76 E14G22 30.04S WAYCROSS MOSUNNY 85 77 77 E10 30.03F HX 96 JESUP CLOUDY 82 77 83 E10G16 30.06F HX 91 BAXLEY RAIN 77 77 100 E8 30.05R BRUNSWICK CLOUDY 77 73 88 NE9 30.06F SAINT SIMONS CLOUDY 77 75 93 E10 30.06F $$ SCZ027-028-034-036>038-045-046-048>050-GAZ119-141-302000- ...LAKE AND SUPPLEMENTAL COASTAL OBSERVATIONS... STATION/POSITION TIME TEMP WIND PRES WAVE SWELL AIR SEA DIR/SP/G HT/PER HT/PER/DIR (UTC) (F) (DEG/KT/KT) (MB) (FT/S) (FT/S/D) UPR LAKE MARION NOT AVBL WINYAH BAY 1845 78 200/ 5 1020.0S LAKE MURRAY 1800 75 50/ 2/ 5 1020.3S ACE BASIN NERRS NOT AVBL FORT PULASKI NOT AVBL SAPELO ISLAND 1900 76 60/ 5 1018.0F $$ ANZ835-935-AMZ111-154-330-350-352-354-370-450-454-472-302000- ...C-MAN AND BUOY OBSERVATIONS... STATION/POSITION TIME TEMP WIND PRES WAVE SWELL AIR SEA DIR/SP/G HT/PER HT/PER/DIR (UTC) (F) (DEG/KT/KT) (MB) (FT/S) (FT/S/D) BUOY 41004 1850 77 84 10/ 6/ 10 1020.1F 5/11 5/11 BUOY 41008 1850 79 84 110/ 16/ 19 1018.2F 5/11 3/110/11 FOLLY BEACH CMAN 1900 76 60/ 10/ 11 1020.3S CAPERS NEARSHORE NOT AVBL FRIPP NEARSHORE NOT AVBL STATION/POSITION TIME TEMP WIND PRES WAVE SWELL AIR SEA DIR/SP/G HT/PER HT/PER/DIR (UTC) (F) (DEG/KT/KT) (MB) (FT/S) (FT/S/D) 5E ST. MARYS GA 1821 85 N/A 4/11 2/110/11 FRYING PAN BUOY 1850 81 82 80/ 10/ 12 1020.7F 5/10 5/150/10 BUOY 41025 1850 79 82 40/ 8/ 10 1019.8F 3/10 3/ 80/10 CAPE LOOKOUT NC 1900 80 80/ 4/ 5 1019.9F BUOY 41002 1850 82 84 CALM / 2 1020.9F 4/10 5/130/10 BUOY 41010 1820 86 86 140/ 19/ 23 1018.2R ST AUGUSTINE FL 1900 81 85 50/ 11/ 12 1016.9F $$

USA.gov is the U.S. government's official web portal to all federal, state and local government web resources and services.